Home > Weather > Port Harcourt > Past weeks

Flag for Nigeria Weather for the Past 2 Weeks in Port Harcourt, Nigeria

Now
84 °F

Partly sunny.


Feels Like: 92 °F
Forecast: 78 / 92 °F
Wind: 2 mph from South

Location: Malabo/Fernando Poo

Current Time: May 3, 2016 at 10:16:51 AM

Latest Report: May 3, 2016 at 9:00 AM


Visibility: N/A

Pressure: 29.92 "Hg

Humidity: 74%

Dew Point: 75 °F

Location of Port HarcourtLocation

Historic Weather in Port Harcourt — Graph

°F

Port Harcourt Temperature Yesterday

Maximum temperature yesterday: 82 °F (at 1:00 PM)
Minimum temperature yesterday: 75 °F (at 10:00 PM)
Average temperature yesterday: 78 °F

High & Low Weather Summary for the Past Weeks

 TemperatureHumidityPressure
High91 °F (Apr 30, 11:00 AM)94% (Apr 18, 11:00 PM)29.98 "Hg (Apr 18, 11:00 PM)
Low73 °F (May 3, 2:00 AM)59% (Apr 27, 11:00 AM)29.74 "Hg (Apr 24, 4:00 PM)
Average82 °F82%29.83 "Hg
* Reported Apr 18 10:00 AM — May 3 8:00 AM, Port Harcourt, Weather by CustomWeather, © 2016

Note: Actual official high and low records may vary slightly from our data, if they occured in-between our weather recording intervals... More about our weather records

Advertising

Port Harcourt Weather History for the Previous 24 Hours

Scroll right to see more
 ConditionsComfort  
Time TempWeatherWind HumidityBarometerVisibility
8:00 AM
Tue, May 3
81 °FPassing clouds.No wind84%29.92 "HgN/A
7:00 AM75 °FPassing clouds.2 mph89%29.86 "HgN/A
6:00 AM73 °FPassing clouds.2 mph94%29.86 "HgN/A
5:00 AM73 °FPassing clouds.3 mph94%29.86 "HgN/A
4:00 AM73 °FPassing clouds.No wind94%29.83 "HgN/A
3:00 AM73 °FPassing clouds.3 mph94%29.83 "HgN/A
2:00 AM73 °FPassing clouds.2 mph94%29.83 "HgN/A
1:00 AM75 °FPassing clouds.2 mph89%29.83 "HgN/A
12:00 AM75 °FPassing clouds.1 mph89%29.83 "HgN/A
11:00 PM
Mon, May 2
75 °FPassing clouds.3 mph94%29.86 "HgN/A
10:00 PM75 °FPassing clouds.1 mph94%29.86 "HgN/A
9:00 PM77 °FPassing clouds.3 mph89%29.83 "HgN/A
8:00 PM77 °FPassing clouds.3 mph89%29.80 "HgN/A
7:00 PM79 °FPassing clouds.3 mph89%29.77 "HgN/A
6:00 PM81 °FPassing clouds.7 mph84%29.77 "HgN/A
5:00 PM82 °FPassing clouds.7 mph79%29.74 "HgN/A
4:00 PM82 °FPartly sunny.12 mph84%29.74 "HgN/A
3:00 PM82 °FThunderstorms. Partly sunny.9 mph79%29.77 "HgN/A
2:00 PM82 °FThunderstorms. Passing clouds.3 mph79%29.77 "HgN/A
1:00 PM82 °FThunderstorms. Partly sunny.5 mph74%29.80 "Hg5 mi
12:00 PM79 °FThunderstorms. Partly sunny.18 mph84%29.80 "Hg5 mi
11:00 AM77 °FThunderstorms. Broken clouds.14 mph83%29.86 "Hg5 mi
10:00 AM77 °FThunderstorms. Broken clouds.14 mph83%29.89 "Hg5 mi
Weather by CustomWeather, © 2016

See weather overviewHow to use our weather pages